Location: Oulou
(10.7667°N, 12.5167°W)
Time: 20:56:24
(UTC+00:00)

Cosmos 2084 Rocket - Pass Details

Date: 20 September 2019
Orbit: 571 x 610 km, 62.8° (Epoch: 17 October)

Event Time Altitude Azimuth Distance (km) Brightness Sun altitude
Rises 18:56:45 0° 200° (SSW) 2,824 7.2 -3.1°
Reaches altitude 10° 18:59:00 10° 199° (SSW) 1,929 6.3 -3.6°
Maximum altitude 19:03:20 73° 115° (ESE) 629 3.5 -4.7°
Drops below altitude 10° 19:07:44 10° 29° (NNE) 1,947 5.9 -5.8°
Sets 19:10:01 0° 28° (NNE) 2,853 6.7 -6.3°
